[[{"header":{"parameterUnit":"m.s-1","parameterCategory":1,"la1":30.2991,"la2":30.254,"lo1":-89.0895,"lo2":-89.0444,"dy":0.0017,"dx":0.0017,"nx":28,"ny":28,"refTime":"2024-07-09T09:00:00:Z","depth":0,"parameterNumber":2,"parameterNumberName":"U-component_of_WINDS"},"data":[0,0,0,0,0,0,0,0,0,0,0,0,0,0,0,0,0,0,0,0,0,0,0,0,0,0,0,0,0,0,0,0,0,0,0,0,0,0,0,0,0,0,0,0,0,0,0,0,0,0,0,0,0,0,0,0,0,0,2.859,2.8591,0,2.8719,2.8721,2.8722,2.8707,2.8705,2.8703,2.8701,2.8833,2.8838,2.8844,0,0,0,0,0,0,0,0,0,0,0,0,0,2.8328,2.8333,2.859,2.8591,2.8593,2.8719,2.8721,2.8723,2.8707,2.8705,2.8702,2.87,2.8831,2.8838,2.8844,0,0,0,0,0,0,0,0,0,0,0,0,0,2.8448,2.8335,2.859,2.8601,2.8603,2.8719,2.8721,2.8723,2.8708,2.8704,2.8701,2.8698,2.8829,2.8837,2.8845,2.8958,0,0,2.887,2.8874,0,0,0,0,0,0,0,0,2.8441,2.8458,2.8597,2.86,2.8603,2.8694,2.8677,2.8802,2.8708,2.8668,2.8701,2.8697,2.8789,2.88,2.8832,2.8964,2.897,2.8871,2.8876,2.8879,2.8882,0,0,0,0,0,0,0,2.8433,2.8452,2.8641,2.8599,2.8603,2.8599,2.8612,2.8701,2.8744,2.8671,2.867,2.8686,2.879,2.8824,2.8835,2.8972,2.8871,2.8878,2.8883,2.8886,2.9202,2.9205,0,0,0,0,0,0,2.8422,2.8445,2.8637,2.8645,2.8513,2.8606,2.8621,2.8668,2.8743,2.8752,2.8688,2.8685,2.8811,2.8825,2.8839,2.8974,2.8879,2.8887,2.8892,2.9198,2.9202,2.9206,0,0,0,0,0,0,2.8417,2.8439,2.8632,2.8545,2.8569,2.8614,2.8666,2.8672,2.8705,2.8756,2.8764,2.8715,2.8809,2.8828,2.8928,2.8979,2.8891,2.8898,2.9194,2.92,2.9204,2.9247,0,0,0,0,0,0,2.8409,2.8438,2.8481,2.8546,2.8574,2.8719,2.8669,2.8677,2.872,2.8716,2.8783,2.8791,2.8808,2.8916,2.8936,2.8988,2.8905,2.919,2.9197,2.9203,2.9241,2.9253,2.9263,0,0,0,0,0,2.84,2.8489,2.8484,2.8507,2.863,2.8722,2.8738,2.8755,2.8724,2.8768,2.88,2.8789,2.897,2.8926,2.8949,2.9005,2.9187,2.9195,2.9202,2.9236,2.9251,2.9263,0,0,0,0,0,0,2.8429,2.8498,2.8493,2.8605,2.8658,2.8719,2.8775,2.8771,2.8833,2.8827,2.8846,2.8862,2.8963,2.8994,2.8944,2.9117,2.9074,2.9087,2.9092,2.9106,2.9117,2.9106,2.8911,0,0,0,0,0,2.8449,2.8519,2.8574,2.8668,2.8695,2.8731,2.8772,2.878,2.8836,2.8858,2.8898,2.8952,2.9021,2.9066,2.9132,2.9246,2.9259,2.9296,2.9306,2.9315,2.9325,2.9385,2.9401,2.9232,2.9232,2.9232,0,0,2.849,2.8536,2.8579,2.8675,2.8717,2.8788,2.8749,2.8827,2.8879,2.887,2.8966,2.8998,2.9059,2.9166,2.9215,2.9195,2.9375,2.9325,2.9332,2.9337,2.9395,2.9411,2.9425,2.9237,2.9236,2.9235,0,0,2.8601,2.8643,2.8725,2.8767,2.8831,2.8854,2.8873,2.8936,2.8956,2.9053,2.9047,2.9109,2.9228,2.9271,2.9309,2.9435,2.9426,2.9456,2.9512,2.9571,2.9584,2.9596,2.9638,2.9653,2.9466,2.9466,2.9466,0,2.8644,2.875,2.8768,2.8845,2.8886,2.8881,2.8963,2.9004,2.9086,2.9114,2.9091,2.9238,2.928,2.9396,2.9426,2.9458,2.9479,2.9447,2.9581,2.9593,2.9604,2.9644,2.9661,2.9469,2.9469,2.9469,2.9468,0,2.8798,2.8872,2.8931,2.9009,2.9057,2.9137,2.9165,2.9213,2.9217,2.9242,2.934,2.939,2.9465,2.9493,2.9499,2.961,2.9595,2.9576,2.9533,2.9623,2.9661,2.9677,2.9474,2.9473,2.9472,2.9471,0,0,2.8931,2.9017,2.9038,2.9072,2.9141,2.9198,2.9277,2.935,2.9389,2.9446,2.9511,2.9611,2.9593,2.9636,2.9646,2.9698,2.9791,2.9673,2.9674,2.969,2.9913,2.9925,2.9942,2.9786,2.979,2.9792,2.9907,0,2.9046,2.9184,2.9202,2.9324,2.9391,2.9387,2.9455,2.9504,2.953,2.959,2.9619,2.9688,2.9661,2.9686,2.9737,2.9769,2.9835,2.9761,2.9845,2.9848,2.9828,2.9963,2.9976,3.0082,2.9922,2.9925,2.9927,0,2.9199,2.9259,2.9387,2.9445,2.9474,2.9535,2.9602,2.9661,2.9716,2.9731,2.9778,2.9781,2.9861,2.9816,2.9926,2.9875,2.9911,2.9931,2.9936,2.9942,2.9891,2.9971,3.0117,3.0131,2.9951,2.9949,2.9947,0,2.9279,2.9392,2.9483,2.9513,2.9584,2.9626,2.9657,2.971,2.9752,2.9811,2.9838,2.9906,2.9942,2.9994,3.0016,2.9982,3.0123,3.0081,3.0136,3.0135,3.0164,3.0162,3.0315,3.0192,3.0191,3.0191,3.0191,0,2.9405,2.9483,2.9519,2.9575,2.9662,2.9682,2.9767,2.9797,2.9843,2.9904,2.9905,2.9962,2.9988,3.0049,3.0067,3.0153,3.017,3.0183,3.0186,3.0182,3.018,3.0204,3.0196,3.0195,3.0194,3.0194,3.0193,0,2.9508,2.9536,2.9634,2.9693,2.9709,2.977,2.982,2.9873,2.9898,2.9975,2.9994,3.0033,3.0104,3.0131,3.0219,3.023,3.0329,3.0328,3.031,3.031,3.0363,3.0356,3.0535,3.0558,3.0422,3.0423,3.0424,0,2.9585,2.9645,2.9709,2.9749,2.9782,2.9848,2.989,2.9911,2.9955,3.0022,3.0067,3.0138,3.0195,3.031,3.0345,3.0412,3.041,3.0468,3.042,3.0412,3.0408,3.0403,3.0408,3.0476,3.0478,3.0479,3.048,0,2.9718,2.9728,2.9789,2.9855,2.9905,2.9958,3.0009,3.0043,3.0071,3.0121,3.0193,3.0238,3.0326,3.0396,3.0464,3.0495,3.0492,3.0495,3.0511,3.0505,3.0491,3.0496,3.0331,3.049,3.0489,3.0488,3.0488,3.0487,2.9809,2.9861,2.9913,2.9981,3.0021,3.0069,3.0121,3.0152,3.0212,3.0285,3.0294,3.0372,3.0424,3.0514,3.0549,3.0609,3.0594,3.0617,3.0623,3.0628,3.063,3.0484,3.0622,3.0622,3.0622,3.0622,3.0621,0,2.994,2.9973,3.0035,3.0105,3.0158,3.015,3.0206,3.025,3.0318,3.0367,3.0423,3.0506,3.0573,3.0614,3.0681,3.0721,3.0721,3.0738,3.0734,3.074,3.0642,3.062,3.0736,3.0736,3.0736,3.0736,3.0736,3.0736,3.0013,3.01,3.0116,3.0222,3.0255,3.033,3.0362,3.0406,3.0444,3.0536,3.0591,3.0617,3.0663,3.0733,3.0794,3.0804,3.0827,3.0845,3.0854,3.076,3.0748,3.0736,3.0716,3.0851,3.0851,3.0947,3.0948,3.0949]},{"header":{"parameterUnit":"m.s-1","parameterCategory":1,"la1":30.2991,"la2":30.254,"lo1":-89.0895,"lo2":-89.0444,"dy":0.0017,"dx":0.0017,"nx":28,"ny":28,"refTime":"2024-07-09T09:00:00:Z","depth":0,"parameterNumber":3,"parameterNumberName":"V-component_of_WINDS"},"data":[0,0,0,0,0,0,0,0,0,0,0,0,0,0,0,0,0,0,0,0,0,0,0,0,0,0,0,0,0,0,0,0,0,0,0,0,0,0,0,0,0,0,0,0,0,0,0,0,0,0,0,0,0,0,0,0,0,0,-0.0116,-0.0115,0,-0.0069,-0.0069,-0.0068,-0.0077,-0.0078,-0.0079,-0.008,-0.003,-0.0028,-0.0026,0,0,0,0,0,0,0,0,0,0,0,0,0,-0.0211,-0.021,-0.0116,-0.0115,-0.0115,-0.0069,-0.0069,-0.0068,-0.0077,-0.0078,-0.0079,-0.008,-0.0031,-0.0029,-0.0026,0,0,0,0,0,0,0,0,0,0,0,0,0,-0.0168,-0.0209,-0.0116,-0.0114,-0.0113,-0.007,-0.0069,-0.0068,-0.0077,-0.0078,-0.0079,-0.0081,-0.0032,-0.0029,-0.0026,0.0019,0,0,-0.0016,-0.0015,0,0,0,0,0,0,0,0,-0.017,-0.0164,-0.0115,-0.0114,-0.0113,-0.008,-0.0084,-0.0039,-0.0077,-0.009,-0.008,-0.0081,-0.0046,-0.0042,-0.003,0.0021,0.0023,-0.0016,-0.0014,-0.0013,-0.0012,0,0,0,0,0,0,0,-0.0173,-0.0166,-0.0097,-0.0114,-0.0113,-0.0115,-0.011,-0.0076,-0.0062,-0.0089,-0.009,-0.0084,-0.0046,-0.0033,-0.0029,0.0024,-0.0016,-0.0013,-0.0011,-0.001,0.0114,0.0115,0,0,0,0,0,0,-0.0177,-0.0169,-0.0099,-0.0096,-0.0145,-0.0112,-0.0107,-0.009,-0.0062,-0.0059,-0.0083,-0.0085,-0.0038,-0.0033,-0.0027,0.0027,-0.0013,-0.001,-0.0008,0.0112,0.0114,0.0116,0,0,0,0,0,0,-0.0179,-0.0171,-0.0101,-0.0133,-0.0124,-0.0109,-0.009,-0.0088,-0.0075,-0.0058,-0.0055,-0.0073,-0.0039,-0.0032,0.0007,0.0028,-0.0008,-0.0005,0.0111,0.0113,0.0115,0.0135,0,0,0,0,0,0,-0.0182,-0.0172,-0.0155,-0.0132,-0.0122,-0.0067,-0.0088,-0.0086,-0.007,-0.0072,-0.0047,-0.0044,-0.0039,0.0003,0.001,0.0032,-0.0003,0.0109,0.0112,0.0114,0.0133,0.0138,0.0142,0,0,0,0,0,-0.0185,-0.015,-0.0154,-0.0145,-0.01,-0.0066,-0.006,-0.0055,-0.0068,-0.0051,-0.004,-0.0045,0.0024,0.0007,0.0015,0.0038,0.0108,0.0111,0.0114,0.0131,0.0137,0.0142,0,0,0,0,0,0,-0.0169,-0.0147,-0.0151,-0.0107,-0.0088,-0.0067,-0.0045,-0.0049,-0.0025,-0.0028,-0.0022,-0.0017,0.0023,0.0034,0.0014,0.0083,0.0064,0.0069,0.0074,0.008,0.0085,0.0082,-0.0,0,0,0,0,0,-0.0161,-0.0135,-0.0117,-0.008,-0.0071,-0.006,-0.0044,-0.0042,-0.0022,-0.0014,-0.0,0.002,0.0046,0.0063,0.0089,0.0134,0.0139,0.0154,0.0158,0.0162,0.0167,0.0192,0.0198,0.0126,0.0126,0.0126,0,0,-0.0143,-0.0127,-0.0111,-0.0077,-0.0062,-0.0035,-0.0053,-0.0023,-0.0003,-0.001,0.0028,0.0039,0.0061,0.0104,0.0123,0.0114,0.0188,0.0166,0.0169,0.0172,0.0195,0.0202,0.0208,0.0128,0.0128,0.0127,0,0,-0.0096,-0.0082,-0.005,-0.0035,-0.0013,-0.0006,0.0002,0.0023,0.003,0.0067,0.0063,0.0087,0.0132,0.0148,0.0162,0.0213,0.0209,0.0221,0.0246,0.027,0.0276,0.0281,0.03,0.0306,0.0225,0.0226,0.0226,0,-0.0076,-0.0035,-0.0033,-0.0003,0.0013,0.0006,0.0039,0.0053,0.0083,0.0094,0.0083,0.0139,0.0154,0.02,0.0212,0.0223,0.0232,0.0219,0.0275,0.028,0.0285,0.0303,0.031,0.0227,0.0227,0.0227,0.0226,0,-0.0012,0.0016,0.0039,0.0067,0.0085,0.0116,0.0124,0.0141,0.0141,0.0149,0.0187,0.0204,0.0232,0.0243,0.0243,0.0289,0.0283,0.0273,0.0255,0.0293,0.031,0.0317,0.0229,0.0228,0.0228,0.0228,0,0,0.0049,0.0076,0.0085,0.0097,0.0121,0.0142,0.0173,0.02,0.0215,0.0235,0.0261,0.0298,0.0289,0.0305,0.0307,0.0328,0.0367,0.0316,0.0316,0.0326,0.0419,0.0427,0.0435,0.0364,0.0365,0.0366,0.0417,0,0.0099,0.0152,0.0155,0.0204,0.0229,0.0223,0.0249,0.0266,0.0274,0.0297,0.0306,0.0332,0.0318,0.0328,0.0348,0.0358,0.0386,0.0355,0.0389,0.039,0.0385,0.0443,0.0452,0.0499,0.0424,0.0425,0.0426,0,0.0165,0.0186,0.0237,0.0256,0.0267,0.029,0.0315,0.0337,0.0356,0.036,0.0377,0.0375,0.0406,0.0385,0.0429,0.0407,0.0421,0.0428,0.043,0.0434,0.0411,0.0451,0.0514,0.0522,0.0436,0.0435,0.0434,0,0.0204,0.0246,0.0281,0.0292,0.0315,0.0331,0.0342,0.0359,0.0375,0.0396,0.0406,0.0431,0.0445,0.0464,0.0469,0.0454,0.0512,0.0492,0.0517,0.0517,0.0531,0.0531,0.0599,0.0538,0.0538,0.0538,0.0538,0,0.0261,0.0292,0.03,0.0322,0.0357,0.0359,0.0394,0.0403,0.0419,0.0442,0.0438,0.0461,0.0465,0.0489,0.0493,0.0528,0.0534,0.0538,0.0539,0.054,0.0539,0.055,0.0547,0.054,0.0539,0.0539,0.0539,0,0.0312,0.0318,0.0357,0.0374,0.0379,0.0405,0.042,0.0441,0.0447,0.0478,0.0485,0.0495,0.0522,0.0529,0.0561,0.0564,0.0606,0.0603,0.06,0.06,0.0625,0.0623,0.0704,0.0715,0.0645,0.0646,0.0647,0,0.0348,0.0372,0.0392,0.0407,0.0418,0.0443,0.0459,0.0461,0.0478,0.0501,0.0519,0.0546,0.0567,0.0611,0.0622,0.0646,0.0645,0.0671,0.0649,0.0648,0.0646,0.0645,0.0648,0.0676,0.0677,0.0678,0.0678,0,0.0412,0.0413,0.0436,0.0459,0.0478,0.0497,0.0515,0.0527,0.0532,0.0551,0.0579,0.0595,0.0628,0.0654,0.0679,0.0689,0.0685,0.0685,0.0692,0.0693,0.0691,0.0693,0.0613,0.0684,0.0683,0.0683,0.0682,0.0682,0.0457,0.0478,0.0495,0.0521,0.0534,0.055,0.0571,0.0579,0.0602,0.0629,0.0629,0.0659,0.0676,0.0709,0.072,0.0744,0.0736,0.0746,0.0749,0.0752,0.0755,0.0686,0.0748,0.0748,0.0748,0.0748,0.0748,0,0.0522,0.0532,0.0555,0.0579,0.0599,0.0592,0.0611,0.0628,0.0654,0.067,0.0691,0.0723,0.0748,0.076,0.0785,0.0801,0.08,0.0808,0.0807,0.081,0.076,0.0752,0.0808,0.0808,0.0808,0.0808,0.0808,0.0808,0.0557,0.0593,0.0596,0.0637,0.0647,0.0676,0.0688,0.0703,0.0716,0.0751,0.0772,0.0779,0.0793,0.0819,0.0842,0.0845,0.0855,0.0864,0.0866,0.0819,0.0813,0.0808,0.08,0.0866,0.0866,0.0914,0.0914,0.0914]}]]